Wind_Speed
12 12 13 14 14 15 15 16 17 16 16 15 16 16 16 17 17 17 18 17 17 17 18 19 19 19 19 18 19 19 18 17 17 17 17 17 16 15 15 15 16 16 16 16
12 12 12 13 13 14 15 16 16 16 15 15 16 16 16 15 16 17 17 17 17 16 16 17 17 18 18 18 18 16 15 16 16 16 15 15 15 15 14 14 14 14 13 13
11 11 11 12 11 13 14 15 15 14 14 15 16 16 16 15 16 16 17 17 17 16 16 15 15 15 16 17 15 14 13 14 15 15 14 14 14 13 13 12 12 12 12 11
11 11 12 11 10 12 13 14 14 14 14 14 15 15 15 16 16 17 17 17 16 14 13 13 13 14 14 14 12 12 11 12 13 13 12 11 11 11 10 10 10 10 10 11
12 12 12 12 12 12 13 14 13 13 13 13 14 14 15 15 15 15 15 15 13 12 12 12 12 12 12 11 11 10 10 11 11 10 10 9 10 10 10 9 8 8 9 10
11 11 12 12 12 13 13 13 12 12 12 13 14 14 14 14 14 12 13 12 11 10 10 10 10 10 10 10 10 10 9 10 10 9 9 9 9 9 9 8 8 8 8 8
11 11 11 11 12 12 13 12 13 13 13 14 14 14 14 13 12 12 12 12 11 10 9 9 8 9 9 9 9 9 9 8 8 9 8 8 8 8 8 8 7 7 7 8
10 10 10 10 10 11 12 12 12 12 11 12 12 12 12 11 10 11 10 10 9 8 8 8 7 7 6 6 7 7 7 7 7 7 7 7 7 7 7 7 7 7 8 8
9 8 8 8 9 9 10 11 11 10 10 11 11 10 9 9 9 8 8 7 6 6 6 6 6 5 5 5 5 5 5 6 6 5 6 6 6 5 7 7 7 7 7 8
7 7 8 7 8 9 10 10 10 10 10 10 9 8 7 7 7 7 6 5 5 5 5 5 4 3 4 4 4 4 4 5 5 5 5 5 5 6 6 7 7 7 7 8
6 6 6 6 8 8 9 9 10 9 8 8 7 6 6 7 6 6 5 4 4 4 4 3 3 3 3 3 3 3 4 4 5 5 5 5 5 6 6 7 7 8 8 7
5 5 5 6 7 8 8 8 8 7 7 7 6 5 5 5 5 5 4 3 4 4 3 3 3 2 2 3 3 3 3 4 4 5 5 5 5 6 6 7 7 7 7 7
5 4 4 5 6 6 6 6 6 6 5 5 5 4 4 4 4 3 3 3 3 3 3 3 3 2 3 3 3 3 4 4 5 5 5 5 5 5 6 6 6 6 6 6
2 2 3 4 4 5 5 5 5 5 5 5 4 4 4 4 3 3 3 3 3 3 3 3 3 3 3 3 3 3 4 4 4 4 4 4 4 4 5 6 6 6 6 5
1 2 3 3 3 3 3 4 5 5 5 5 4 4 5 5 4 3 3 4 4 4 4 3 3 3 4 4 4 4 4 4 4 4 4 4 4 4 4 5 5 5 5 4
1 2 3 3 3 3 3 4 4 4 4 4 4 5 5 5 5 4 3 3 4 4 4 4 4 4 4 4 4 4 4 4 4 4 4 4 4 4 5 5 5 5 4 4
1 2 3 3 2 3 3 4 4 4 4 5 4 5 5 5 5 5 4 4 4 4 4 4 4 4 4 4 4 4 4 4 4 4 5 5 5 5 5 6 5 5 5 5
2 2 3 3 2 3 3 4 4 5 5 5 4 4 4 5 5 5 5 5 4 4 4 4 4 4 4 4 4 4 4 4 4 4 5 5 5 6 6 6 6 6 7 7
2 2 2 3 3 3 4 4 4 4 5 5 5 4 4 5 5 5 5 5 5 5 4 4 4 5 4 4 5 5 5 5 5 5 5 6 6 7 7 7 8 8 9 9
1 2 2 2 3 3 3 3 4 4 5 5 5 5 5 5 5 5 5 5 5 5 5 5 5 5 5 5 5 6 6 6 6 6 7 7 8 8 8 9 9 10 10 11
2 2 2 2 3 3 3 3 3 4 5 5 5 5 4 4 4 5 5 5 5 5 5 5 5 5 5 5 6 6 7 7 8 8 8 9 9 9 10 10 11 12 12 13
3 2 2 2 2 2 3 3 3 4 5 5 5 5 5 4 4 4 5 5 5 5 5 5 5 6 6 6 7 7 8 8 9 10 10 11 11 11 11 12 13 13 14 15
3 2 1 2 2 2 2 3 3 4 4 5 5 5 5 4 4 4 5 5 4 5 5 6 6 6 7 7 8 8 9 10 11 11 12 13 13 13 14 15 15 16 17 17
4 3 2 1 1 1 1 2 2 3 3 4 4 4 4 4 4 5 5 5 5 6 6 7 7 7 8 9 9 10 11 12 13 13 14 15 15 16 17 17 18 19 19 20
4 3 2 1 0 1 1 1 1 2 3 4 4 4 4 4 5 5 5 6 6 7 7 8 8 9 9 10 11 12 13 14 15 16 16 17 18 19 19 20 20 21 21 22
5 4 3 2 1 0 0 1 1 2 2 3 4 4 4 5 5 5 6 6 7 8 8 9 10 10 11 12 13 14 15 16 17 18 18 19 20 21 21 22 22 23 23 24
6 5 4 3 3 2 1 1 2 2 2 3 4 4 5 6 6 7 7 8 8 9 10 10 11 12 13 14 15 16 17 18 19 20 20 21 22 23 23 24 24 25 26 26
Wind_Direction
256 254 256 260 260 258 265 273 279 287 288 291 286 287 290 287 283 285 283 284 284 285 290 293 295 298 299 299 303 305 307 307 310 312 312 311 310 310 311 309 308 308 308 307
254 254 258 261 260 258 265 275 282 288 289 290 286 286 288 289 286 289 288 284 287 289 292 294 294 297 299 301 306 308 310 311 312 315 315 314 314 313 313 315 317 318 320 320
253 255 259 260 266 268 270 277 283 287 288 290 288 285 286 289 291 294 290 289 288 289 291 295 296 299 303 307 306 310 313 315 316 316 317 317 317 319 321 321 323 324 324 323
254 255 255 263 269 273 279 281 284 289 290 291 293 295 293 292 291 295 293 294 291 288 292 295 297 303 307 313 314 313 314 319 321 320 319 319 323 326 327 328 332 333 332 331
256 256 261 264 268 275 281 283 288 290 291 291 292 292 294 296 296 297 296 297 292 292 294 297 301 306 307 312 315 318 321 325 327 326 327 323 323 329 332 336 340 340 339 339
259 262 267 270 274 280 285 289 295 296 295 293 295 294 295 296 297 299 303 305 300 299 299 303 303 306 309 314 317 321 323 323 323 326 332 334 334 337 340 339 339 338 341 347
263 270 276 276 279 283 284 291 295 295 295 293 294 294 295 295 300 305 307 306 307 305 304 302 301 305 307 314 317 321 326 330 331 330 330 333 341 347 348 348 348 348 350 355
266 269 276 284 283 287 291 296 298 299 298 299 299 298 297 296 301 306 309 309 309 303 303 302 303 306 308 316 322 325 331 337 338 339 342 345 347 349 352 354 359 359 359 358
268 273 283 286 286 292 296 299 302 304 305 305 303 302 301 300 303 311 311 314 316 317 315 311 308 308 316 323 331 338 343 344 343 347 357 360 3 3 1 2 4 5 8 9
271 278 285 288 290 295 301 304 305 308 311 310 305 306 310 308 312 315 320 325 324 323 323 320 322 326 334 334 342 351 357 1 3 2 2 9 21 16 9 10 10 10 14 17
273 284 290 293 300 306 308 310 314 316 319 320 314 314 311 316 320 323 325 332 334 331 334 342 351 357 360 360 357 1 6 11 12 10 9 13 21 20 19 20 20 23 25 26
278 286 292 300 309 314 317 322 326 325 327 327 326 323 320 321 321 321 332 340 349 357 355 350 352 1 8 6 10 11 14 16 17 21 25 27 25 25 24 22 20 22 27 30
266 281 296 309 315 321 330 339 344 342 343 342 337 336 333 337 340 345 357 15 23 31 31 27 25 26 14 13 8 8 14 20 20 26 32 30 28 26 25 24 22 24 30 35
264 296 320 327 329 333 343 352 358 2 5 7 7 13 19 20 18 29 50 46 48 42 41 48 47 32 23 23 19 20 17 16 17 22 22 20 21 19 18 23 24 21 20 25
315 335 337 339 338 345 351 357 4 9 14 19 23 30 34 34 43 64 65 61 54 46 46 49 45 32 26 25 24 21 15 13 15 20 18 11 7 4 6 9 11 10 9 10
7 352 356 7 11 10 3 7 15 19 19 23 35 40 38 41 54 63 62 56 49 44 42 42 37 32 26 21 22 23 20 15 12 10 6 0 358 355 354 351 350 349 350 351
50 16 16 27 35 25 22 29 36 35 41 46 47 43 44 51 59 57 58 55 50 49 45 37 31 30 28 27 23 20 18 16 11 5 2 356 349 345 344 341 338 334 332 331
69 49 46 54 55 43 41 49 53 52 50 48 44 43 48 54 57 55 55 50 45 45 42 36 31 30 32 31 22 19 15 8 3 1 359 353 345 340 338 335 330 328 326 323
89 67 56 58 58 52 54 60 58 51 44 40 39 44 50 55 55 53 48 45 42 37 37 39 35 29 26 24 17 15 9 2 356 353 351 347 339 334 330 327 323 320 318 316
127 89 68 70 68 59 54 55 59 56 50 47 48 52 53 49 48 44 36 34 36 37 36 35 31 27 24 19 15 11 3 355 348 344 341 337 332 327 324 321 319 316 313 312
152 102 73 73 69 62 61 62 60 52 45 43 42 42 40 39 42 40 34 32 34 33 29 24 21 18 13 8 3 359 353 348 344 339 334 330 327 325 323 320 318 315 314 313
156 114 79 74 77 74 73 71 64 53 45 38 33 32 32 37 39 33 27 27 27 25 23 21 17 10 6 4 359 353 348 345 340 335 331 328 326 323 320 318 316 315 313 313
157 140 110 93 96 95 84 73 63 51 39 30 27 29 33 37 34 26 19 16 12 9 4 1 359 356 354 352 349 346 342 338 335 331 328 326 324 322 320 318 316 314 313 312
173 167 163 134 94 94 78 50 35 27 22 21 21 24 28 27 22 17 13 9 3 358 354 351 348 345 343 340 337 335 333 331 330 328 327 325 322 320 318 316 314 313 312 311
195 197 206 222 40 55 68 27 8 6 7 10 15 19 15 6 1 1 0 358 354 351 347 344 341 338 336 332 331 330 329 327 326 325 324 322 321 319 317 314 312 311 310 309
205 212 225 239 264 302 332 325 333 346 353 356 357 355 353 351 350 349 347 344 340 338 336 334 332 330 328 326 326 326 326 326 325 324 322 321 319 318 317 315 313 312 310 309
214 221 229 237 248 255 273 294 305 317 326 334 337 336 337 337 336 334 333 332 330 329 328 327 326 325 325 324 324 324 324 323 322 321 320 319 319 318 317 315 313 312 311 310
Height
5813 5814 5813 5813 5813 5812 5812 5811 5811 5810 5809 5808 5807 5806 5804 5802 5801 5800 5798 5796 5795 5794 5793 5792 5790 5788 5786 5784 5781 5778 5775 5773 5770 5767 5764 5762 5759 5756 5753 5751 5748 5745 5743 5740
5810 5810 5810 5810 5809 5809 5808 5807 5807 5806 5805 5804 5802 5801 5800 5798 5796 5795 5793 5791 5789 5789 5788 5786 5785 5783 5782 5779 5777 5774 5771 5769 5766 5764 5761 5758 5756 5753 5750 5747 5745 5742 5740 5737
5806 5807 5806 5806 5806 5805 5805 5804 5803 5802 5801 5799 5798 5797 5795 5794 5792 5790 5789 5787 5785 5784 5783 5782 5781 5779 5777 5775 5772 5770 5768 5766 5763 5761 5758 5755 5753 5750 5747 5745 5742 5740 5738 5736
5802 5804 5803 5805 5803 5802 5801 5800 5799 5797 5797 5795 5794 5792 5791 5789 5788 5786 5785 5783 5781 5779 5779 5777 5776 5774 5773 5771 5768 5766 5765 5763 5760 5758 5755 5753 5750 5748 5745 5743 5741 5739 5737 5734
5799 5799 5799 5800 5799 5798 5797 5796 5795 5794 5793 5791 5790 5788 5787 5785 5784 5782 5780 5779 5777 5775 5774 5773 5772 5770 5769 5767 5766 5764 5762 5760 5758 5756 5753 5751 5748 5746 5744 5742 5739 5738 5736 5733
5796 5795 5795 5797 5796 5795 5795 5792 5792 5790 5789 5788 5786 5785 5784 5781 5780 5778 5776 5774 5773 5771 5770 5769 5768 5767 5766 5764 5763 5762 5760 5758 5756 5754 5752 5749 5747 5745 5743 5741 5739 5737 5735 5732
5793 5792 5792 5793 5792 5792 5792 5791 5788 5786 5785 5784 5782 5781 5780 5778 5776 5774 5773 5771 5769 5768 5767 5766 5765 5765 5763 5762 5761 5759 5758 5756 5754 5752 5750 5748 5746 5744 5742 5740 5738 5736 5734 5732
5790 5790 5792 5790 5789 5789 5788 5786 5784 5783 5781 5780 5778 5777 5775 5774 5772 5771 5770 5768 5767 5766 5765 5764 5763 5762 5761 5760 5759 5758 5756 5754 5753 5751 5749 5747 5745 5744 5742 5740 5738 5736 5734 5733
5788 5789 5788 5786 5786 5785 5784 5783 5781 5779 5778 5776 5775 5773 5772 5771 5769 5768 5767 5766 5765 5764 5763 5762 5761 5760 5759 5759 5758 5756 5755 5753 5752 5750 5748 5746 5745 5743 5742 5740 5738 5736 5734 5733
5785 5785 5784 5784 5783 5782 5781 5780 5778 5776 5775 5773 5772 5771 5769 5768 5767 5765 5764 5764 5763 5762 5761 5760 5759 5758 5758 5757 5756 5755 5754 5753 5751 5749 5748 5746 5745 5743 5742 5740 5738 5736 5735 5733
5782 5782 5781 5781 5780 5779 5778 5776 5775 5773 5772 5771 5769 5768 5767 5766 5764 5763 5763 5762 5761 5760 5760 5759 5758 5757 5757 5756 5755 5754 5753 5752 5751 5749 5748 5746 5745 5743 5742 5740 5739 5737 5735 5734
5780 5780 5780 5779 5778 5776 5775 5774 5772 5771 5769 5768 5766 5765 5765 5764 5763 5762 5761 5761 5760 5759 5759 5758 5757 5757 5756 5755 5755 5754 5753 5752 5750 5749 5748 5746 5745 5744 5742 5741 5740 5738 5736 5735
5778 5778 5778 5777 5776 5774 5773 5771 5770 5769 5767 5766 5765 5764 5763 5762 5762 5761 5760 5760 5759 5759 5758 5758 5757 5756 5756 5755 5754 5753 5752 5751 5750 5749 5748 5747 5746 5744 5743 5742 5740 5739 5737 5736
5776 5776 5775 5775 5774 5772 5771 5770 5769 5768 5766 5765 5764 5763 5762 5762 5761 5760 5760 5760 5759 5759 5758 5757 5757 5756 5755 5755 5754 5753 5752 5751 5750 5749 5748 5747 5746 5745 5744 5742 5741 5740 5738 5737
5774 5774 5774 5773 5772 5771 5770 5769 5768 5767 5766 5765 5764 5763 5763 5762 5761 5761 5760 5760 5759 5759 5758 5757 5757 5756 5755 5754 5754 5753 5752 5751 5750 5749 5748 5747 5746 5745 5744 5743 5741 5740 5739 5737
5773 5773 5772 5772 5771 5770 5769 5768 5768 5767 5766 5765 5764 5764 5763 5762 5762 5761 5760 5760 5760 5759 5759 5758 5757 5756 5755 5755 5754 5753 5752 5751 5750 5749 5748 5747 5746 5745 5744 5743 5741 5740 5739 5738
5773 5772 5771 5771 5771 5770 5769 5768 5768 5767 5766 5765 5765 5764 5764 5763 5762 5762 5761 5761 5760 5759 5759 5758 5757 5756 5755 5755 5754 5753 5752 5751 5750 5749 5748 5747 5746 5745 5744 5742 5741 5740 5739 5737
5772 5772 5771 5771 5771 5770 5769 5769 5768 5768 5767 5766 5766 5765 5764 5764 5763 5763 5762 5761 5761 5760 5759 5759 5758 5757 5756 5755 5754 5753 5752 5751 5750 5749 5748 5747 5746 5745 5743 5742 5741 5739 5738 5736
5772 5772 5771 5771 5771 5770 5770 5769 5769 5768 5768 5767 5766 5765 5765 5765 5764 5764 5763 5762 5761 5761 5760 5759 5758 5757 5756 5755 5754 5753 5752 5751 5750 5749 5748 5746 5745 5744 5742 5741 5739 5738 5736 5735
5772 5772 5771 5771 5771 5770 5770 5770 5769 5769 5768 5767 5767 5766 5766 5765 5765 5764 5763 5763 5762 5761 5760 5759 5758 5757 5757 5756 5754 5753 5752 5751 5750 5749 5747 5746 5744 5742 5741 5739 5738 5736 5734 5732
5771 5772 5771 5771 5771 5771 5770 5770 5770 5770 5769 5768 5768 5767 5767 5766 5765 5765 5764 5763 5762 5761 5760 5760 5759 5758 5757 5755 5754 5753 5752 5751 5749 5748 5746 5744 5743 5741 5739 5737 5735 5734 5732 5730
5771 5771 5771 5771 5771 5771 5771 5771 5770 5770 5769 5769 5768 5767 5767 5766 5766 5765 5764 5764 5763 5762 5761 5760 5759 5758 5757 5755 5754 5753 5751 5750 5748 5747 5745 5743 5741 5739 5737 5735 5733 5731 5729 5727
5770 5771 5771 5771 5771 5771 5771 5771 5771 5770 5770 5769 5769 5768 5767 5766 5766 5765 5765 5764 5763 5762 5760 5760 5758 5757 5756 5755 5753 5752 5750 5749 5747 5745 5743 5741 5739 5736 5734 5732 5730 5727 5725 5722
5770 5770 5771 5771 5771 5771 5771 5771 5771 5771 5770 5770 5769 5768 5767 5767 5766 5765 5765 5764 5763 5761 5760 5759 5758 5757 5756 5754 5752 5751 5749 5747 5745 5743 5740 5738 5736 5733 5731 5728 5725 5723 5720 5717
5769 5770 5770 5771 5771 5771 5771 5771 5771 5770 5770 5770 5769 5768 5768 5767 5766 5765 5764 5763 5762 5761 5760 5759 5757 5756 5754 5753 5751 5749 5747 5745 5743 5740 5738 5735 5732 5729 5726 5723 5720 5717 5714 5712
5768 5769 5769 5770 5770 5770 5770 5770 5770 5770 5770 5769 5769 5768 5768 5767 5766 5765 5764 5763 5762 5760 5759 5758 5756 5754 5753 5751 5749 5747 5744 5742 5739 5737 5734 5731 5728 5725 5721 5718 5715 5712 5708 5705
5766 5767 5768 5769 5769 5770 5770 5770 5770 5769 5769 5769 5769 5768 5767 5766 5765 5764 5763 5762 5761 5759 5758 5756 5754 5752 5750 5748 5746 5744 5741 5738 5736 5733 5729 5726 5723 5719 5716 5712 5709 5705 5701 5698